Weather History for Chihuahua, Mexico

Change the Weather History Date:

Wednesday, January 2, 2013

  Actual Average Record
Temperature  
Mean Temperature 42 °F -  
Max Temperature 56 °F 63 °F 78 °F (1997)
Min Temperature 27 °F 32 °F 21 °F (2003)
Degree Days  
Heating Degree Days 24    
Moisture  
Dew Point 22 °F    
Average Humidity 41    
Maximum Humidity 70    
Minimum Humidity 25    
Precipitation  
Precipitation 0.00 in - - ()
Sea Level Pressure  
Sea Level Pressure 30.10 in    
Wind  
Wind Speed 4 mph ()    
Max Wind Speed 12 mph    
Max Gust Speed -    
Visibility 8.1 miles    
Events      
Averages and records for this station are not official NWS values.
T = Trace of Precipitation, MM = Missing Value Source: Averaged Metar Reports

Daily Weather History Graph

Daily Weather History Graph

Search for Another Location

Airport:

Trip Planner

Search our weather history database for the weather conditions in past years. The results will help you decide how hot, cold, wet, or windy it might be!

Date:

Astronomy

Jan. 02, 2013 Rise Set
Actual Time 6:57 AM MST 5:19 PM MST
Civil Twilight 6:31 AM MST 5:45 PM MST
Nautical Twilight 6:01 AM MST 6:14 PM MST
Astronomical Twilight 5:33 AM MST 6:43 PM MST
Moon 10:25 PM MST (1/2) 10:06 AM MST (1/2)
Length of Visible Light 11h 13m
Length of Day
10h 21m
Waning Gibbous, 74% of the Moon is Illuminated
Jan 2
Waning Gibbous
Jan 4
Last Quarter
Jan 11
New
Jan 18
First Quarter
Jan 26
Full

Hourly Weather History & Observations

Time (MST) Temp. Windchill Dew Point Humidity Pressure Visibility Wind Dir Wind Speed Gust Speed Precip Events Conditions
4:50 AM 31 °F - 20 °F 53% 30.06 in 1 mi Calm Calm - -   Clear
5:40 AM 26.6 °F 20.0 °F 14.0 °F 59% 30.23 in 10.0 mi South 5.8 mph - N/A   Mostly Cloudy
6:40 AM 23.0 °F - 14.0 °F 68% 30.17 in 10.0 mi Calm Calm - N/A   Mostly Cloudy
7:40 AM 24.8 °F 16.9 °F 14.0 °F 64% 30.34 in 10.0 mi South 6.9 mph - N/A   Mostly Cloudy
7:45 AM 27 °F - 21 °F 70% 30.15 in 6 mi Calm Calm - -   Scattered Clouds
8:46 AM 37.4 °F - 21.2 °F 52% 30.21 in 10.0 mi Calm Calm - N/A   Scattered Clouds
9:40 AM 39.2 °F 37.0 °F 21.2 °F 49% 30.20 in 10.0 mi North 3.5 mph - N/A   Scattered Clouds
10:40 AM 44.6 °F 42.2 °F 21.2 °F 39% 30.24 in 10.0 mi North 4.6 mph - N/A   Clear
10:45 AM 47 °F - 26 °F 30% 30.14 in 6 mi ENE 2.2 mph - -  
11:41 AM 48.2 °F - 21.2 °F 34% 30.14 in 10.0 mi Calm Calm - N/A   Clear
12:42 PM 51.8 °F - 23.0 °F 33% 30.08 in 10.0 mi ESE 9.2 mph - N/A   Clear
1:40 PM 53.6 °F - 23.0 °F 30% 30.09 in 10.0 mi NE 5.8 mph - N/A   Clear
1:45 PM 55 °F - 30 °F 26% 29.95 in 6 mi NNE 4.5 mph - -  
2:40 PM 55.4 °F - 23.0 °F 29% 30.03 in 10.0 mi East 10.4 mph - N/A   Clear
3:40 PM 55.4 °F - 23.0 °F 29% 30.03 in 10.0 mi East 11.5 mph - N/A   Clear
4:40 PM 53.6 °F - 23.0 °F 30% 30.05 in 10.0 mi ENE 11.5 mph - N/A   Clear
4:45 PM 54 °F - 28 °F 25% 29.89 in 6 mi ENE 8.9 mph - -  
5:40 PM 48.2 °F - 21.2 °F 34% 30.05 in 10.0 mi ENE 8.1 mph - N/A   Partly Cloudy
6:40 PM 44.6 °F 39.7 °F 21.2 °F 39% 30.08 in 10.0 mi North 9.2 mph - N/A   Clear
7:40 PM 42.8 °F 41.1 °F 19.4 °F 39% 30.18 in 10.0 mi NNW 3.5 mph - N/A   Clear
7:45 PM 47 °F - 27 °F 33% 29.91 in 1 mi NNW 2.2 mph - -  
8:40 PM 42.8 °F 41.1 °F 19.4 °F 39% 30.10 in 10.0 mi NNE 3.5 mph - N/A   Clear
10:33 PM 41 °F - 27 °F 44% 29.94 in 1 mi Calm Calm - -